| time (UTC) | temp F | wind direction | speed knots | gust knots | rain 1hr in | rain 24hr in | rain mn in | humidity % | barometer mb |
| 20260506051204 | 64 | 0 | 0.0 | 0.0 | 0.00 | 0.00 | 0.00 | 79 | 1035.9 |
| 20260506050904 | 65 | 0 | 0.0 | 0.0 | 0.00 | 0.00 | 0.00 | 78 | 1035.8 |
| 20260506050604 | 65 | 0 | 0.0 | 0.0 | 0.00 | 0.00 | 0.00 | 78 | 1035.9 |
| 20260506050304 | 66 | 0 | 0.0 | 0.0 | 0.00 | 0.00 | 0.00 | 77 | 1035.9 |
| 20260506045103 | 67 | 0 | 0.0 | 0.0 | 0.00 | 0.00 | 0.00 | 74 | 1036.0 |
| 20260506044504 | 67 | 0 | 0.0 | 0.0 | 0.00 | 0.00 | 0.00 | 74 | 1035.9 |
| 20260506044204 | 67 | 0 | 0.0 | 0.0 | 0.00 | 0.00 | 0.00 | 73 | 1036.2 |
| 20260506043904 | 67 | 0 | 0.0 | 0.0 | 0.00 | 0.00 | 0.00 | 72 | 1036.0 |
| 20260506043603 | 68 | 0 | 0.0 | 0.0 | 0.00 | 0.00 | 0.00 | 72 | 1036.0 |
| 20260506043004 | 69 | 0 | 0.0 | 0.0 | 0.00 | 0.00 | 0.00 | 70 | 1036.1 |
| 20260506042703 | 69 | 0 | 0.0 | 0.0 | 0.00 | 0.00 | 0.00 | 70 | 1036.0 |
| 20260506042404 | 69 | 0 | 0.0 | 0.0 | 0.00 | 0.00 | 0.00 | 70 | 1036.0 |
| 20260506042104 | 69 | 0 | 0.0 | 0.0 | 0.00 | 0.00 | 0.00 | 70 | 1036.1 |
| 20260506041806 | 69 | 0 | 0.0 | 0.0 | 0.00 | 0.00 | 0.00 | 71 | 1036.1 |
| 20260506041504 | 69 | 0 | 0.0 | 0.0 | 0.00 | 0.00 | 0.00 | 70 | 1036.1 |
| 20260506041204 | 69 | 0 | 0.0 | 0.0 | 0.00 | 0.00 | 0.00 | 70 | 1036.1 |
| 20260506040904 | 69 | 0 | 0.0 | 0.0 | 0.00 | 0.00 | 0.00 | 69 | 1036.1 |
| 20260506040603 | 69 | 0 | 0.0 | 0.0 | 0.00 | 0.00 | 0.00 | 69 | 1036.2 |
| 20260506040306 | 69 | 0 | 0.0 | 0.0 | 0.00 | 0.00 | 0.00 | 70 | 1036.2 |
| 20260506040004 | 69 | 0 | 0.0 | 0.0 | 0.00 | 0.00 | 0.00 | 71 | 1036.2 |
| 20260506035703 | 68 | 0 | 0.0 | 0.0 | 0.00 | 0.00 | 0.00 | 72 | 1036.0 |
| 20260506035404 | 68 | 0 | 0.0 | 0.0 | 0.00 | 0.00 | 0.00 | 72 | 1036.1 |
| 20260506035105 | 67 | 0 | 0.0 | 0.0 | 0.00 | 0.00 | 0.00 | 72 | 1036.1 |
| 20260506034504 | 68 | 0 | 0.0 | 0.0 | 0.00 | 0.00 | 0.00 | 72 | 1036.2 |
| 20260506034204 | 68 | 0 | 0.0 | 0.0 | 0.00 | 0.00 | 0.00 | 72 | 1036.2 |
| 20260506033904 | 68 | 0 | 0.0 | 0.0 | 0.00 | 0.00 | 0.00 | 72 | 1036.1 |
| 20260506033603 | 68 | 0 | 0.0 | 0.0 | 0.00 | 0.00 | 0.00 | 71 | 1036.0 |
| 20260506033304 | 68 | 0 | 0.0 | 0.0 | 0.00 | 0.00 | 0.00 | 71 | 1036.1 |
| 20260506033004 | 68 | 0 | 0.0 | 0.0 | 0.00 | 0.00 | 0.00 | 70 | 1036.2 |
| 20260506032703 | 69 | 0 | 0.0 | 0.0 | 0.00 | 0.00 | 0.00 | 67 | 1036.3 |
| 20260506032403 | 69 | 0 | 0.0 | 0.0 | 0.00 | 0.00 | 0.00 | 67 | 1036.3 |
| 20260506032104 | 68 | 0 | 0.0 | 0.0 | 0.00 | 0.00 | 0.00 | 68 | 1036.2 |
| 20260506031803 | 68 | 0 | 0.0 | 0.0 | 0.00 | 0.00 | 0.00 | 68 | 1036.3 |
| 20260506031504 | 68 | 0 | 0.0 | 0.0 | 0.00 | 0.00 | 0.00 | 67 | 1036.2 |
| 20260506031204 | 68 | 0 | 0.0 | 0.0 | 0.00 | 0.00 | 0.00 | 67 | 1036.2 |
| 20260506030905 | 68 | 0 | 0.0 | 0.0 | 0.00 | 0.00 | 0.00 | 67 | 1036.1 |
| 20260506030304 | 69 | 0 | 0.0 | 0.0 | 0.00 | 0.00 | 0.00 | 66 | 1036.2 |
| 20260506030004 | 69 | 0 | 0.0 | 0.0 | 0.00 | 0.00 | 0.00 | 66 | 1036.1 |
| 20260506025704 | 69 | 0 | 0.0 | 0.0 | 0.00 | 0.00 | 0.00 | 66 | 1036.2 |
| 20260506025103 | 70 | 0 | 0.0 | 0.0 | 0.00 | 0.00 | 0.00 | 63 | 1036.2 |
| 20260506024803 | 70 | 0 | 0.0 | 0.0 | 0.00 | 0.00 | 0.00 | 62 | 1036.3 |
| 20260506024504 | 71 | 0 | 0.0 | 0.0 | 0.00 | 0.00 | 0.00 | 61 | 1036.2 |
| 20260506024206 | 71 | 0 | 0.0 | 0.0 | 0.00 | 0.00 | 0.00 | 61 | 1036.3 |
| 20260506023304 | 73 | 0 | 0.0 | 0.0 | 0.00 | 0.00 | 0.00 | 58 | 1036.4 |
| 20260506023004 | 73 | 0 | 0.0 | 0.0 | 0.00 | 0.00 | 0.00 | 58 | 1036.3 |
| 20260506022704 | 73 | 0 | 0.0 | 0.0 | 0.00 | 0.00 | 0.00 | 56 | 1036.5 |
| 20260506022406 | 74 | 0 | 0.0 | 0.0 | 0.00 | 0.00 | 0.00 | 57 | 1036.4 |
| 20260506022103 | 75 | 0 | 0.0 | 0.0 | 0.00 | 0.00 | 0.00 | 56 | 1036.5 |
| 20260506021804 | 75 | 0 | 0.0 | 0.0 | 0.00 | 0.00 | 0.00 | 56 | 1036.5 |
| 20260506021503 | 75 | 0 | 0.0 | 0.0 | 0.00 | 0.00 | 0.00 | 58 | 1036.3 |
| 20260506021205 | 74 | 0 | 0.0 | 0.0 | 0.00 | 0.00 | 0.00 | 61 | 1036.5 |
| 20260506020904 | 72 | 0 | 0.0 | 0.0 | 0.00 | 0.00 | 0.00 | 60 | 1036.6 |
| 20260506020604 | 72 | 0 | 0.0 | 0.0 | 0.00 | 0.00 | 0.00 | 59 | 1036.5 |
| 20260506020304 | 72 | 0 | 0.0 | 0.0 | 0.00 | 0.00 | 0.00 | 59 | 1036.5 |
| 20260506020004 | 73 | 0 | 0.0 | 0.0 | 0.00 | 0.00 | 0.00 | 59 | 1036.4 |
| 20260506015703 | 72 | 0 | 0.0 | 0.0 | 0.00 | 0.00 | 0.00 | 59 | 1036.4 |
| 20260506015403 | 72 | 0 | 0.0 | 0.0 | 0.00 | 0.00 | 0.00 | 59 | 1036.5 |
| 20260506014505 | 71 | 0 | 0.0 | 0.0 | 0.00 | 0.00 | 0.00 | 63 | 1036.4 |
| 20260506014203 | 70 | 0 | 0.0 | 0.0 | 0.00 | 0.00 | 0.00 | 64 | 1036.5 |
| 20260506013904 | 69 | 0 | 0.0 | 0.0 | 0.00 | 0.00 | 0.00 | 66 | 1036.5 |
| 20260506013604 | 69 | 0 | 0.0 | 0.0 | 0.00 | 0.00 | 0.00 | 66 | 1036.6 |
| 20260506013304 | 69 | 0 | 0.0 | 0.0 | 0.00 | 0.00 | 0.00 | 65 | 1036.8 |
| 20260506013003 | 69 | 0 | 0.0 | 0.0 | 0.00 | 0.00 | 0.00 | 66 | 1036.8 |
| 20260506012704 | 69 | 0 | 0.0 | 0.0 | 0.00 | 0.00 | 0.00 | 66 | 1036.6 |
| 20260506012404 | 69 | 0 | 0.0 | 0.0 | 0.00 | 0.00 | 0.00 | 65 | 1036.5 |
| 20260506012104 | 69 | 0 | 0.0 | 0.0 | 0.00 | 0.00 | 0.00 | 65 | 1036.8 |
| 20260506011203 | 69 | 0 | 0.0 | 0.0 | 0.00 | 0.00 | 0.00 | 64 | 1036.8 |
| 20260506010904 | 69 | 0 | 0.0 | 0.0 | 0.00 | 0.00 | 0.00 | 64 | 1036.8 |
| 20260506010604 | 70 | 0 | 0.0 | 0.0 | 0.00 | 0.00 | 0.00 | 63 | 1036.7 |
| 20260506010303 | 70 | 0 | 0.0 | 0.0 | 0.00 | 0.00 | 0.00 | 63 | 1036.8 |
| 20260506010004 | 70 | 0 | 0.0 | 0.0 | 0.00 | 0.00 | 0.00 | 62 | 1036.8 |
| 20260506005703 | 70 | 0 | 0.0 | 0.0 | 0.00 | 0.00 | 0.00 | 63 | 1036.7 |
| 20260506005404 | 69 | 0 | 0.0 | 0.0 | 0.00 | 0.00 | 0.00 | 64 | 1036.8 |
| 20260506005104 | 69 | 0 | 0.0 | 0.0 | 0.00 | 0.00 | 0.00 | 64 | 1036.9 |
| 20260506004803 | 70 | 0 | 0.0 | 0.0 | 0.00 | 0.00 | 0.00 | 64 | 1036.9 |
| 20260506004505 | 69 | 0 | 0.0 | 0.0 | 0.00 | 0.00 | 0.00 | 64 | 1037.0 |
| 20260506003903 | 70 | 0 | 0.0 | 0.0 | 0.00 | 0.00 | 0.00 | 62 | 1037.1 |
| 20260506003604 | 71 | 0 | 0.0 | 0.0 | 0.00 | 0.00 | 0.00 | 61 | 1037.1 |
| 20260506003303 | 71 | 0 | 0.0 | 0.0 | 0.00 | 0.00 | 0.00 | 62 | 1037.1 |
| 20260506003004 | 71 | 0 | 0.0 | 0.0 | 0.00 | 0.00 | 0.00 | 62 | 1037.1 |
| 20260506002703 | 71 | 0 | 0.0 | 0.0 | 0.00 | 0.00 | 0.00 | 61 | 1037.3 |
| 20260506002104 | 72 | 0 | 0.0 | 0.0 | 0.00 | 0.00 | 0.00 | 59 | 1037.3 |
| 20260506001804 | 72 | 0 | 0.0 | 0.0 | 0.00 | 0.00 | 0.00 | 60 | 1037.3 |
| 20260506001203 | 71 | 0 | 0.0 | 0.0 | 0.00 | 0.00 | 0.00 | 63 | 1037.5 |
| 20260506000904 | 70 | 0 | 0.0 | 0.0 | 0.00 | 0.00 | 0.00 | 62 | 1037.5 |
| 20260506000603 | 71 | 0 | 0.0 | 0.0 | 0.00 | 0.00 | 0.00 | 61 | 1037.6 |
| 20260506000304 | 72 | 0 | 0.0 | 0.0 | 0.00 | 0.00 | 0.00 | 58 | 1037.6 |
| 20260506000005 | 73 | 0 | 0.0 | 0.0 | 0.00 | 0.00 | 0.00 | 58 | 1037.6 |
| 20260505235703 | 73 | 0 | 0.0 | 0.0 | 0.00 | 0.00 | 0.00 | 58 | 1037.7 |
| 20260505235407 | 73 | 0 | 0.0 | 0.0 | 0.00 | 0.00 | 0.00 | 58 | 1037.5 |
| 20260505235104 | 73 | 0 | 0.0 | 0.0 | 0.00 | 0.00 | 0.00 | 59 | 1037.7 |
| 20260505234203 | 71 | 0 | 0.0 | 0.0 | 0.00 | 0.00 | 0.00 | 60 | 1037.7 |
| 20260505233904 | 71 | 0 | 0.0 | 0.0 | 0.00 | 0.00 | 0.00 | 60 | 1037.8 |
| 20260505233004 | 71 | 0 | 0.0 | 0.0 | 0.00 | 0.00 | 0.00 | 63 | 1037.8 |
| 20260505232704 | 69 | 0 | 0.0 | 0.0 | 0.00 | 0.00 | 0.00 | 63 | 1037.9 |
| 20260505232403 | 69 | 0 | 0.0 | 0.0 | 0.00 | 0.00 | 0.00 | 63 | 1037.9 |
| 20260505232104 | 69 | 0 | 0.0 | 0.0 | 0.00 | 0.00 | 0.00 | 63 | 1038.1 |
| 20260505231804 | 69 | 0 | 0.0 | 0.0 | 0.00 | 0.00 | 0.00 | 62 | 1038.0 |
| 20260505231503 | 69 | 0 | 0.0 | 0.0 | 0.00 | 0.00 | 0.00 | 62 | 1038.1 |
| 20260505231204 | 69 | 0 | 0.0 | 0.0 | 0.00 | 0.00 | 0.00 | 62 | 1038.0 |
| 20260505230903 | 69 | 0 | 0.0 | 0.0 | 0.00 | 0.00 | 0.00 | 61 | 1038.3 |
| 20260505230604 | 69 | 0 | 0.0 | 0.0 | 0.00 | 0.00 | 0.00 | 60 | 1038.2 |
| 20260505230303 | 70 | 0 | 0.0 | 0.0 | 0.00 | 0.00 | 0.00 | 59 | 1038.3 |
| 20260505230004 | 69 | 0 | 0.0 | 0.0 | 0.00 | 0.00 | 0.00 | 60 | 1038.2 |
| 20260505225703 | 69 | 0 | 0.0 | 0.0 | 0.00 | 0.00 | 0.00 | 61 | 1038.1 |
| 20260505225104 | 69 | 0 | 0.0 | 0.0 | 0.00 | 0.00 | 0.00 | 60 | 1038.3 |
| 20260505224803 | 69 | 0 | 0.0 | 0.0 | 0.00 | 0.00 | 0.00 | 59 | 1038.3 |
| 20260505224504 | 71 | 0 | 0.0 | 0.0 | 0.00 | 0.00 | 0.00 | 57 | 1038.3 |
| 20260505224203 | 71 | 0 | 0.0 | 0.0 | 0.00 | 0.00 | 0.00 | 58 | 1038.3 |
| 20260505223604 | 68 | 0 | 0.0 | 0.0 | 0.00 | 0.00 | 0.00 | 65 | 1038.5 |
| 20260505223304 | 67 | 0 | 0.0 | 0.0 | 0.00 | 0.00 | 0.00 | 65 | 1038.4 |
| 20260505223004 | 67 | 0 | 0.0 | 0.0 | 0.00 | 0.00 | 0.00 | 64 | 1038.3 |
| 20260505222704 | 67 | 0 | 0.0 | 0.0 | 0.00 | 0.00 | 0.00 | 66 | 1038.4 |
| 20260505222404 | 67 | 0 | 0.0 | 0.0 | 0.00 | 0.00 | 0.00 | 67 | 1038.5 |
| 20260505222104 | 66 | 0 | 0.0 | 0.0 | 0.00 | 0.00 | 0.00 | 68 | 1038.5 |
| 20260505221806 | 66 | 0 | 0.0 | 0.0 | 0.00 | 0.00 | 0.00 | 68 | 1038.6 |
| 20260505221503 | 66 | 0 | 0.0 | 0.0 | 0.00 | 0.00 | 0.00 | 69 | 1038.7 |
| 20260505221204 | 65 | 0 | 0.0 | 0.0 | 0.00 | 0.00 | 0.00 | 70 | 1038.6 |
| 20260505220904 | 65 | 0 | 0.0 | 0.0 | 0.00 | 0.00 | 0.00 | 69 | 1038.6 |
| 20260505220603 | 65 | 0 | 0.0 | 0.0 | 0.00 | 0.00 | 0.00 | 69 | 1038.5 |
| 20260505220303 | 65 | 0 | 0.0 | 0.0 | 0.00 | 0.00 | 0.00 | 69 | 1038.5 |
| 20260505220005 | 65 | 0 | 0.0 | 0.0 | 0.00 | 0.00 | 0.00 | 70 | 1038.7 |
| 20260505215406 | 65 | 0 | 0.0 | 0.0 | 0.00 | 0.00 | 0.00 | 70 | 1038.7 |
| 20260505215104 | 64 | 0 | 0.0 | 0.0 | 0.00 | 0.00 | 0.00 | 71 | 1038.7 |
| 20260505214804 | 64 | 0 | 0.0 | 0.0 | 0.00 | 0.00 | 0.00 | 74 | 1039.0 |
| 20260505214504 | 63 | 0 | 0.0 | 0.0 | 0.00 | 0.00 | 0.00 | 76 | 1038.7 |
| 20260505214204 | 62 | 0 | 0.0 | 0.0 | 0.00 | 0.00 | 0.00 | 79 | 1038.7 |
| 20260505213606 | 60 | 10 | 0.0 | 2.6 | 0.00 | 0.00 | 0.00 | 79 | 1038.9 |
| 20260505213305 | 60 | 7 | 0.0 | 2.6 | 0.00 | 0.00 | 0.00 | 77 | 1038.8 |
| 20260505213004 | 61 | 6 | 0.9 | 2.6 | 0.00 | 0.00 | 0.00 | 76 | 1038.8 |
| 20260505212404 | 61 | 22 | 0.0 | 1.7 | 0.00 | 0.00 | 0.00 | 79 | 1038.8 |
| 20260505212104 | 61 | 24 | 0.0 | 1.7 | 0.00 | 0.00 | 0.00 | 80 | 1038.9 |
| 20260505211804 | 61 | 11 | 0.9 | 1.7 | 0.00 | 0.00 | 0.00 | 81 | 1038.8 |
| 20260505211504 | 61 | 4 | 0.0 | 1.7 | 0.00 | 0.00 | 0.00 | 81 | 1039.0 |
| 20260505210904 | 60 | 37 | 0.0 | 2.6 | 0.00 | 0.00 | 0.00 | 85 | 1039.0 |
| 20260505210603 | 59 | 40 | 0.9 | 3.5 | 0.00 | 0.00 | 0.00 | 86 | 1039.0 |
| 20260505210304 | 58 | 37 | 0.9 | 3.5 | 0.00 | 0.00 | 0.00 | 88 | 1039.0 |
| 20260505210004 | 56 | 21 | 1.7 | 3.5 | 0.00 | 0.00 | 0.00 | 89 | 1039.0 |
| 20260505205704 | 56 | 21 | 1.7 | 3.5 | 0.00 | 0.00 | 0.00 | 89 | 1039.0 |
| 20260505205403 | 56 | 12 | 0.9 | 3.5 | 0.00 | 0.00 | 0.00 | 89 | 1039.1 |
| 20260505205106 | 56 | 20 | 0.9 | 3.5 | 0.00 | 0.00 | 0.00 | 89 | 1039.0 |
| 20260505204804 | 56 | 25 | 1.7 | 3.5 | 0.00 | 0.00 | 0.00 | 90 | 1039.0 |
| 20260505204504 | 57 | 17 | 1.7 | 3.5 | 0.00 | 0.00 | 0.00 | 90 | 1039.1 |
| 20260505203603 | 57 | 346 | 1.7 | 2.6 | 0.00 | 0.00 | 0.00 | 95 | 1039.3 |
| 20260505203304 | 55 | 352 | 0.0 | 2.6 | 0.00 | 0.00 | 0.00 | 95 | 1039.2 |
| 20260505203003 | 55 | 33 | 1.7 | 1.7 | 0.00 | 0.00 | 0.00 | 95 | 1039.1 |
| 20260505202704 | 55 | 39 | 0.0 | 1.7 | 0.00 | 0.00 | 0.00 | 96 | 1039.2 |
| 20260505202403 | 55 | 32 | 0.9 | 1.7 | 0.00 | 0.00 | 0.00 | 96 | 1039.3 |
| 20260505202104 | 55 | 23 | 0.0 | 1.7 | 0.00 | 0.00 | 0.00 | 96 | 1039.2 |
| 20260505201803 | 55 | 17 | 0.9 | 1.7 | 0.00 | 0.00 | 0.00 | 97 | 1039.3 |
| 20260505201504 | 55 | 28 | 0.0 | 0.9 | 0.00 | 0.00 | 0.00 | 97 | 1039.1 |
| 20260505200906 | 55 | 1 | 0.0 | 0.9 | 0.00 | 0.00 | 0.00 | 97 | 1039.2 |
| 20260505200604 | 55 | 34 | 0.0 | 0.9 | 0.00 | 0.00 | 0.00 | 97 | 1039.1 |
| 20260505200303 | 54 | 27 | 0.0 | 0.9 | 0.00 | 0.00 | 0.00 | 97 | 1039.1 |
| 20260505200004 | 53 | 17 | 0.0 | 0.9 | 0.00 | 0.00 | 0.00 | 98 | 1039.0 |
| 20260505195704 | 53 | 1 | 0.0 | 0.9 | 0.00 | 0.00 | 0.00 | 98 | 1039.0 |
| 20260505194803 | 53 | 0 | 0.0 | 0.0 | 0.00 | 0.00 | 0.00 | 98 | 1039.0 |
| 20260505194504 | 53 | 0 | 0.0 | 0.0 | 0.00 | 0.00 | 0.00 | 98 | 1038.9 |
| 20260505194203 | 53 | 0 | 0.0 | 0.0 | 0.00 | 0.00 | 0.00 | 98 | 1039.0 |
| 20260505193904 | 53 | 0 | 0.0 | 0.0 | 0.00 | 0.00 | 0.00 | 98 | 1038.9 |
| 20260505193603 | 52 | 0 | 0.0 | 0.0 | 0.00 | 0.00 | 0.00 | 98 | 1038.8 |
| 20260505193304 | 52 | 0 | 0.0 | 0.0 | 0.00 | 0.00 | 0.00 | 98 | 1038.9 |
| 20260505193004 | 52 | 0 | 0.0 | 0.0 | 0.00 | 0.00 | 0.00 | 98 | 1038.9 |
| 20260505192404 | 52 | 0 | 0.0 | 0.0 | 0.00 | 0.00 | 0.00 | 98 | 1038.8 |
| 20260505192104 | 52 | 135 | 0.0 | 0.9 | 0.00 | 0.00 | 0.00 | 98 | 1038.8 |
| 20260505191803 | 52 | 158 | 0.0 | 0.9 | 0.00 | 0.00 | 0.00 | 98 | 1038.8 |
| 20260505191504 | 52 | 161 | 0.0 | 0.9 | 0.00 | 0.00 | 0.00 | 98 | 1038.6 |
| 20260505191206 | 52 | 161 | 0.0 | 0.9 | 0.00 | 0.00 | 0.00 | 98 | 1038.7 |
| 20260505190906 | 52 | 181 | 0.0 | 0.9 | 0.00 | 0.00 | 0.00 | 98 | 1038.7 |
| 20260505190604 | 52 | 0 | 0.0 | 0.0 | 0.00 | 0.00 | 0.00 | 98 | 1038.6 |
| 20260505190304 | 52 | 0 | 0.0 | 0.0 | 0.00 | 0.00 | 0.00 | 98 | 1038.8 |
| 20260505190004 | 52 | 0 | 0.0 | 0.0 | 0.00 | 0.00 | 0.00 | 98 | 1038.5 |
| 20260505185403 | 52 | 0 | 0.0 | 0.0 | 0.00 | 0.00 | 0.00 | 98 | 1038.7 |
| 20260505185104 | 52 | 248 | 0.0 | 0.9 | 0.00 | 0.00 | 0.00 | 98 | 1038.8 |
| 20260505184804 | 52 | 248 | 0.0 | 0.9 | 0.00 | 0.00 | 0.00 | 98 | 1038.7 |
| 20260505183904 | 52 | 0 | 0.0 | 0.0 | 0.00 | 0.00 | 0.00 | 98 | 1038.8 |
| 20260505183604 | 52 | 0 | 0.0 | 0.0 | 0.00 | 0.00 | 0.00 | 98 | 1038.8 |
| 20260505183304 | 52 | 0 | 0.0 | 0.0 | 0.00 | 0.00 | 0.00 | 97 | 1038.4 |
| 20260505183004 | 52 | 0 | 0.0 | 0.0 | 0.00 | 0.00 | 0.00 | 97 | 1038.5 |
| 20260505182703 | 52 | 0 | 0.0 | 0.0 | 0.00 | 0.00 | 0.00 | 97 | 1038.6 |
| 20260505182404 | 52 | 0 | 0.0 | 0.0 | 0.00 | 0.00 | 0.00 | 97 | 1038.6 |
| 20260505182104 | 52 | 0 | 0.0 | 0.0 | 0.00 | 0.00 | 0.00 | 97 | 1038.6 |
| 20260505181804 | 52 | 0 | 0.0 | 0.0 | 0.00 | 0.00 | 0.00 | 97 | 1038.6 |
| 20260505181504 | 52 | 0 | 0.0 | 0.0 | 0.00 | 0.00 | 0.00 | 97 | 1038.5 |
| 20260505181204 | 52 | 0 | 0.0 | 0.0 | 0.00 | 0.00 | 0.00 | 97 | 1038.4 |
| 20260505180604 | 52 | 0 | 0.0 | 0.0 | 0.00 | 0.00 | 0.00 | 97 | 1038.4 |
| 20260505180303 | 52 | 0 | 0.0 | 0.0 | 0.00 | 0.00 | 0.00 | 97 | 1038.4 |
| 20260505180004 | 52 | 0 | 0.0 | 0.0 | 0.00 | 0.00 | 0.00 | 97 | 1038.5 |
| 20260505175703 | 52 | 0 | 0.0 | 0.0 | 0.00 | 0.00 | 0.00 | 97 | 1038.5 |
| 20260505175404 | 52 | 0 | 0.0 | 0.0 | 0.00 | 0.00 | 0.00 | 97 | 1038.6 |
| 20260505174804 | 52 | 0 | 0.0 | 0.0 | 0.00 | 0.00 | 0.00 | 97 | 1038.6 |
| 20260505174504 | 52 | 0 | 0.0 | 0.0 | 0.00 | 0.00 | 0.00 | 97 | 1038.7 |
| 20260505174206 | 52 | 0 | 0.0 | 0.0 | 0.00 | 0.00 | 0.00 | 97 | 1038.7 |
| 20260505173904 | 52 | 0 | 0.0 | 0.0 | 0.00 | 0.00 | 0.00 | 97 | 1038.6 |
| 20260505173604 | 52 | 0 | 0.0 | 0.0 | 0.00 | 0.00 | 0.00 | 97 | 1038.7 |
| 20260505173004 | 52 | 0 | 0.0 | 0.0 | 0.00 | 0.00 | 0.00 | 97 | 1038.7 |
| 20260505172703 | 52 | 0 | 0.0 | 0.0 | 0.00 | 0.00 | 0.00 | 97 | 1038.6 |
| 20260505172404 | 52 | 0 | 0.0 | 0.0 | 0.00 | 0.00 | 0.00 | 97 | 1038.7 |
| 20260505172103 | 52 | 0 | 0.0 | 0.0 | 0.00 | 0.00 | 0.00 | 97 | 1038.8 |
| 20260505171804 | 52 | 0 | 0.0 | 0.0 | 0.00 | 0.00 | 0.00 | 97 | 1038.7 |
| 20260505171505 | 52 | 0 | 0.0 | 0.0 | 0.00 | 0.00 | 0.00 | 97 | 1038.7 |
| 20260505171204 | 52 | 0 | 0.0 | 0.0 | 0.00 | 0.00 | 0.00 | 97 | 1038.8 |
| 20260505170904 | 52 | 0 | 0.0 | 0.0 | 0.00 | 0.00 | 0.00 | 97 | 1038.7 |
| 20260505170604 | 52 | 0 | 0.0 | 0.0 | 0.00 | 0.00 | 0.00 | 97 | 1038.8 |
| 20260505170303 | 52 | 0 | 0.0 | 0.0 | 0.00 | 0.00 | 0.00 | 97 | 1038.8 |
| 20260505170004 | 52 | 0 | 0.0 | 0.0 | 0.00 | 0.00 | 0.00 | 97 | 1038.7 |
| 20260505165704 | 52 | 0 | 0.0 | 0.0 | 0.00 | 0.00 | 0.00 | 97 | 1038.8 |
| 20260505165403 | 52 | 0 | 0.0 | 0.0 | 0.00 | 0.00 | 0.00 | 97 | 1038.8 |
| 20260505165104 | 52 | 0 | 0.0 | 0.0 | 0.00 | 0.00 | 0.00 | 97 | 1038.9 |
| 20260505164506 | 52 | 0 | 0.0 | 0.0 | 0.00 | 0.00 | 0.00 | 97 | 1038.8 |
| 20260505164204 | 52 | 0 | 0.0 | 0.0 | 0.00 | 0.00 | 0.00 | 97 | 1038.7 |
| 20260505163904 | 52 | 0 | 0.0 | 0.0 | 0.00 | 0.00 | 0.00 | 97 | 1038.9 |
| 20260505163605 | 52 | 0 | 0.0 | 0.0 | 0.00 | 0.00 | 0.00 | 97 | 1038.9 |
| 20260505163303 | 52 | 0 | 0.0 | 0.0 | 0.00 | 0.00 | 0.00 | 97 | 1038.9 |
| 20260505163004 | 52 | 0 | 0.0 | 0.0 | 0.00 | 0.00 | 0.00 | 97 | 1039.0 |
| 20260505162703 | 52 | 0 | 0.0 | 0.0 | 0.00 | 0.00 | 0.00 | 97 | 1039.0 |
| 20260505162404 | 52 | 0 | 0.0 | 0.0 | 0.00 | 0.00 | 0.00 | 97 | 1038.7 |
| 20260505162104 | 52 | 0 | 0.0 | 0.0 | 0.00 | 0.00 | 0.00 | 97 | 1038.9 |
| 20260505161803 | 52 | 0 | 0.0 | 0.0 | 0.00 | 0.00 | 0.00 | 97 | 1038.9 |
| 20260505161504 | 52 | 0 | 0.0 | 0.0 | 0.00 | 0.00 | 0.00 | 97 | 1038.9 |
| 20260505161204 | 52 | 0 | 0.0 | 0.0 | 0.00 | 0.00 | 0.00 | 97 | 1038.9 |
| 20260505160904 | 52 | 0 | 0.0 | 0.0 | 0.00 | 0.00 | 0.00 | 97 | 1038.8 |
| 20260505160604 | 52 | 0 | 0.0 | 0.0 | 0.00 | 0.00 | 0.00 | 97 | 1038.8 |
| 20260505160304 | 52 | 0 | 0.0 | 0.0 | 0.00 | 0.00 | 0.00 | 97 | 1038.9 |
| 20260505153304 | 52 | 135 | 0.0 | 0.9 | 0.00 | 0.00 | 0.00 | 97 | 1038.8 |
| 20260505153004 | 52 | 135 | 0.0 | 0.9 | 0.00 | 0.00 | 0.00 | 96 | 1038.9 |
| 20260505152703 | 52 | 135 | 0.0 | 1.7 | 0.00 | 0.00 | 0.00 | 96 | 1038.9 |
| 20260505152405 | 52 | 135 | 0.0 | 1.7 | 0.00 | 0.00 | 0.00 | 96 | 1038.8 |
| 20260505152104 | 52 | 135 | 0.0 | 1.7 | 0.00 | 0.00 | 0.00 | 96 | 1039.0 |
| 20260505151806 | 52 | 135 | 0.9 | 1.7 | 0.00 | 0.00 | 0.00 | 96 | 1039.1 |
| 20260505151504 | 52 | 135 | 0.0 | 0.9 | 0.00 | 0.00 | 0.00 | 96 | 1038.8 |
| 20260505151204 | 52 | 248 | 0.0 | 0.9 | 0.00 | 0.00 | 0.00 | 96 | 1039.0 |
| 20260505150903 | 52 | 248 | 0.0 | 0.9 | 0.00 | 0.00 | 0.00 | 96 | 1039.0 |
| 20260505150603 | 52 | 248 | 0.0 | 0.9 | 0.00 | 0.00 | 0.00 | 96 | 1039.0 |
| 20260505140604 | 52 | 0 | 0.0 | 0.0 | 0.00 | 0.00 | 0.00 | 96 | 1039.7 |
| 20260505124504 | 52 | 1 | 0.0 | 0.9 | 0.00 | 0.00 | 0.00 | 95 | 1040.1 |
| 20260505124205 | 52 | 1 | 0.0 | 0.9 | 0.00 | 0.00 | 0.00 | 95 | 1040.2 |
| 20260505123903 | 52 | 0 | 0.0 | 0.0 | 0.00 | 0.00 | 0.00 | 95 | 1040.2 |
| 20260505123606 | 52 | 0 | 0.0 | 0.0 | 0.00 | 0.00 | 0.00 | 95 | 1040.1 |
| 20260505123304 | 52 | 0 | 0.0 | 0.0 | 0.00 | 0.00 | 0.00 | 95 | 1040.2 |
| 20260505123003 | 52 | 248 | 0.0 | 0.9 | 0.00 | 0.00 | 0.00 | 95 | 1040.2 |
| 20260505122704 | 52 | 248 | 0.0 | 0.9 | 0.00 | 0.00 | 0.00 | 95 | 1040.3 |
| 20260505122403 | 52 | 248 | 0.0 | 0.9 | 0.00 | 0.00 | 0.00 | 95 | 1040.1 |
| 20260505122104 | 52 | 248 | 0.0 | 0.9 | 0.00 | 0.00 | 0.00 | 95 | 1040.4 |
| 20260505121804 | 52 | 327 | 0.0 | 0.9 | 0.00 | 0.00 | 0.00 | 95 | 1040.3 |
| 20260505121504 | 52 | 332 | 0.0 | 0.9 | 0.00 | 0.00 | 0.00 | 95 | 1040.2 |
| 20260505121204 | 52 | 332 | 0.0 | 0.9 | 0.00 | 0.00 | 0.00 | 95 | 1040.4 |
| 20260505120904 | 52 | 1 | 0.0 | 0.9 | 0.00 | 0.00 | 0.00 | 95 | 1040.3 |
| 20260505120604 | 52 | 135 | 0.0 | 0.9 | 0.00 | 0.00 | 0.00 | 95 | 1040.3 |
| 20260505120304 | 52 | 135 | 0.0 | 1.7 | 0.00 | 0.00 | 0.00 | 95 | 1040.2 |
| 20260505120006 | 52 | 135 | 0.0 | 1.7 | 0.00 | 0.00 | 0.00 | 95 | 1040.4 |
| 20260505115704 | 52 | 135 | 0.0 | 1.7 | 0.00 | 0.00 | 0.00 | 95 | 1040.4 |
| 20260505115404 | 52 | 135 | 0.0 | 1.7 | 0.00 | 0.00 | 0.00 | 95 | 1040.4 |
| 20260505115103 | 52 | 135 | 0.0 | 1.7 | 0.00 | 0.00 | 0.00 | 95 | 1040.4 |
| 20260505114805 | 52 | 159 | 0.0 | 1.7 | 0.00 | 0.00 | 0.00 | 95 | 1040.4 |
| 20260505114504 | 52 | 268 | 0.0 | 1.7 | 0.00 | 0.00 | 0.00 | 95 | 1040.3 |
| 20260505114203 | 52 | 276 | 0.0 | 1.7 | 0.00 | 0.00 | 0.00 | 95 | 1040.3 |
| 20260505113904 | 52 | 290 | 0.0 | 1.7 | 0.00 | 0.00 | 0.00 | 95 | 1040.3 |
| 20260505113604 | 52 | 288 | 0.9 | 1.7 | 0.00 | 0.00 | 0.00 | 95 | 1040.4 |
| 20260505113303 | 52 | 333 | 0.9 | 1.7 | 0.00 | 0.00 | 0.00 | 95 | 1040.4 |
| 20260505113004 | 52 | 345 | 0.0 | 1.7 | 0.00 | 0.00 | 0.00 | 95 | 1040.3 |
| 20260505112703 | 52 | 311 | 0.0 | 1.7 | 0.00 | 0.00 | 0.00 | 95 | 1040.4 |
| 20260505112404 | 52 | 288 | 0.0 | 1.7 | 0.00 | 0.00 | 0.00 | 95 | 1040.4 |
| 20260505111505 | 52 | 281 | 0.0 | 1.7 | 0.00 | 0.00 | 0.00 | 96 | 1040.7 |
| 20260505110904 | 52 | 225 | 0.0 | 0.9 | 0.00 | 0.00 | 0.00 | 96 | 1040.5 |
| 20260505110604 | 52 | 181 | 0.0 | 0.9 | 0.00 | 0.00 | 0.00 | 96 | 1040.7 |
| 20260505110305 | 52 | 181 | 0.0 | 0.9 | 0.00 | 0.00 | 0.00 | 96 | 1040.8 |
| 20260505101804 | 51 | 7 | 0.0 | 1.7 | 0.00 | 0.00 | 0.00 | 97 | 1040.9 |
| 20260505101504 | 51 | 5 | 0.0 | 1.7 | 0.00 | 0.00 | 0.00 | 97 | 1041.1 |
| 20260505100904 | 51 | 355 | 0.9 | 1.7 | 0.00 | 0.00 | 0.00 | 97 | 1041.0 |
| 20260505100605 | 51 | 323 | 0.0 | 1.7 | 0.00 | 0.00 | 0.00 | 97 | 1040.9 |
| 20260505100306 | 51 | 241 | 0.0 | 0.9 | 0.00 | 0.00 | 0.00 | 97 | 1040.9 |
| 20260505100004 | 51 | 225 | 0.0 | 0.9 | 0.00 | 0.00 | 0.00 | 97 | 1040.9 |
| 20260505095703 | 51 | 1 | 0.0 | 0.9 | 0.00 | 0.00 | 0.00 | 97 | 1040.9 |
| 20260505095404 | 51 | 1 | 0.0 | 0.9 | 0.00 | 0.00 | 0.00 | 97 | 1040.9 |
| 20260505095104 | 51 | 32 | 0.0 | 1.7 | 0.00 | 0.00 | 0.00 | 97 | 1041.0 |
| 20260505094203 | 51 | 46 | 0.0 | 1.7 | 0.00 | 0.00 | 0.00 | 97 | 1040.9 |
| 20260505093604 | 51 | 0 | 0.0 | 0.0 | 0.00 | 0.00 | 0.00 | 97 | 1040.8 |
| 20260505093304 | 51 | 181 | 0.0 | 0.9 | 0.00 | 0.00 | 0.00 | 97 | 1040.9 |
| 20260505093004 | 51 | 181 | 0.0 | 0.9 | 0.00 | 0.00 | 0.00 | 97 | 1040.8 |
| 20260505092704 | 51 | 90 | 0.0 | 1.7 | 0.00 | 0.00 | 0.00 | 97 | 1040.9 |
| 20260505092403 | 51 | 49 | 0.0 | 1.7 | 0.00 | 0.00 | 0.00 | 97 | 1040.8 |
| 20260505092104 | 51 | 49 | 0.0 | 1.7 | 0.00 | 0.00 | 0.00 | 97 | 1040.8 |
| 20260505091803 | 51 | 40 | 0.0 | 1.7 | 0.00 | 0.00 | 0.00 | 97 | 1040.9 |
| 20260505091504 | 51 | 45 | 0.0 | 0.9 | 0.00 | 0.00 | 0.00 | 97 | 1040.8 |
| 20260505091204 | 51 | 0 | 0.0 | 0.0 | 0.00 | 0.00 | 0.00 | 97 | 1040.8 |
| 20260505090904 | 50 | 347 | 0.0 | 0.9 | 0.00 | 0.00 | 0.00 | 97 | 1040.8 |
| 20260505090603 | 50 | 355 | 0.0 | 1.7 | 0.00 | 0.00 | 0.00 | 97 | 1040.7 |
| 20260505090004 | 50 | 353 | 0.0 | 1.7 | 0.00 | 0.00 | 0.00 | 97 | 1040.8 |
| 20260505085703 | 50 | 354 | 0.0 | 1.7 | 0.00 | 0.00 | 0.00 | 97 | 1040.6 |
| 20260505085404 | 50 | 356 | 0.0 | 1.7 | 0.00 | 0.00 | 0.00 | 97 | 1040.6 |
| 20260505084804 | 50 | 1 | 0.0 | 0.9 | 0.00 | 0.00 | 0.00 | 96 | 1040.8 |
| 20260505084504 | 50 | 0 | 0.0 | 0.0 | 0.00 | 0.00 | 0.00 | 96 | 1040.8 |
| 20260505084204 | 50 | 0 | 0.0 | 0.0 | 0.00 | 0.00 | 0.00 | 96 | 1040.8 |
| 20260505083904 | 50 | 0 | 0.0 | 0.0 | 0.00 | 0.00 | 0.00 | 96 | 1040.8 |
| 20260505083605 | 50 | 45 | 0.0 | 0.9 | 0.00 | 0.00 | 0.00 | 97 | 1040.8 |
| 20260505083304 | 50 | 14 | 0.0 | 1.7 | 0.00 | 0.00 | 0.00 | 97 | 1040.9 |
| 20260505083005 | 50 | 7 | 0.0 | 1.7 | 0.00 | 0.00 | 0.00 | 97 | 1040.7 |
| 20260505082704 | 50 | 5 | 0.0 | 1.7 | 0.00 | 0.00 | 0.00 | 97 | 1040.9 |
| 20260505082104 | 49 | 1 | 0.9 | 1.7 | 0.00 | 0.00 | 0.00 | 96 | 1040.7 |
| 20260505081804 | 49 | 1 | 0.0 | 0.9 | 0.00 | 0.00 | 0.00 | 96 | 1040.8 |
| 20260505081504 | 49 | 0 | 0.0 | 0.0 | 0.00 | 0.00 | 0.00 | 96 | 1040.8 |
| 20260505081204 | 49 | 0 | 0.0 | 0.0 | 0.00 | 0.00 | 0.00 | 95 | 1040.7 |
| 20260505080903 | 49 | 0 | 0.0 | 0.0 | 0.00 | 0.00 | 0.00 | 95 | 1040.7 |
| 20260505080604 | 49 | 0 | 0.0 | 0.0 | 0.00 | 0.00 | 0.00 | 95 | 1040.7 |
| 20260505080306 | 49 | 0 | 0.0 | 0.0 | 0.00 | 0.00 | 0.00 | 95 | 1040.8 |
| 20260505075703 | 49 | 0 | 0.0 | 0.0 | 0.00 | 0.00 | 0.00 | 95 | 1040.8 |
| 20260505075405 | 49 | 0 | 0.0 | 0.0 | 0.00 | 0.00 | 0.00 | 95 | 1040.7 |
| 20260505075106 | 49 | 0 | 0.0 | 0.0 | 0.00 | 0.00 | 0.00 | 95 | 1040.6 |
| 20260505074804 | 49 | 0 | 0.0 | 0.0 | 0.00 | 0.00 | 0.00 | 95 | 1040.7 |
| 20260505074503 | 49 | 0 | 0.0 | 0.0 | 0.00 | 0.00 | 0.00 | 95 | 1040.5 |
| 20260505074205 | 49 | 0 | 0.0 | 0.0 | 0.00 | 0.00 | 0.00 | 94 | 1040.5 |
| 20260505073604 | 49 | 0 | 0.0 | 0.0 | 0.00 | 0.00 | 0.00 | 94 | 1040.5 |
| 20260505073303 | 50 | 0 | 0.0 | 0.0 | 0.00 | 0.00 | 0.00 | 94 | 1040.5 |
| 20260505073003 | 50 | 0 | 0.0 | 0.0 | 0.00 | 0.00 | 0.00 | 93 | 1040.6 |
| 20260505071804 | 50 | 0 | 0.0 | 0.0 | 0.00 | 0.00 | 0.00 | 92 | 1040.4 |
| 20260505071504 | 50 | 0 | 0.0 | 0.0 | 0.00 | 0.00 | 0.00 | 92 | 1040.4 |
| 20260505071203 | 50 | 0 | 0.0 | 0.0 | 0.00 | 0.00 | 0.00 | 92 | 1040.5 |
| 20260505070904 | 51 | 0 | 0.0 | 0.0 | 0.00 | 0.00 | 0.00 | 92 | 1040.4 |
| 20260505070605 | 51 | 0 | 0.0 | 0.0 | 0.00 | 0.00 | 0.00 | 92 | 1040.4 |
| 20260505070303 | 51 | 0 | 0.0 | 0.0 | 0.00 | 0.00 | 0.00 | 92 | 1040.4 |
| 20260505070004 | 51 | 0 | 0.0 | 0.0 | 0.00 | 0.00 | 0.00 | 92 | 1040.4 |
| 20260505064503 | 52 | 0 | 0.0 | 0.0 | 0.00 | 0.00 | 0.00 | 90 | 1040.3 |
| 20260505064204 | 52 | 0 | 0.0 | 0.0 | 0.00 | 0.00 | 0.00 | 90 | 1040.3 |
| 20260505063904 | 52 | 0 | 0.0 | 0.0 | 0.00 | 0.00 | 0.00 | 90 | 1040.2 |
| 20260505063604 | 52 | 0 | 0.0 | 0.0 | 0.00 | 0.00 | 0.00 | 90 | 1040.4 |
| 20260505063304 | 52 | 0 | 0.0 | 0.0 | 0.00 | 0.00 | 0.00 | 90 | 1040.1 |
| 20260505063006 | 52 | 0 | 0.0 | 0.0 | 0.00 | 0.00 | 0.00 | 90 | 1040.2 |
| 20260505062704 | 52 | 0 | 0.0 | 0.0 | 0.00 | 0.00 | 0.00 | 89 | 1040.2 |
| 20260505062403 | 53 | 0 | 0.0 | 0.0 | 0.00 | 0.00 | 0.00 | 89 | 1040.2 |
| 20260505062104 | 53 | 0 | 0.0 | 0.0 | 0.00 | 0.00 | 0.00 | 89 | 1040.3 |
| 20260505061803 | 53 | 0 | 0.0 | 0.0 | 0.00 | 0.00 | 0.00 | 89 | 1040.1 |
| 20260505061505 | 53 | 0 | 0.0 | 0.0 | 0.00 | 0.00 | 0.00 | 89 | 1040.2 |
| 20260505061203 | 53 | 0 | 0.0 | 0.0 | 0.00 | 0.00 | 0.00 | 89 | 1040.1 |
| 20260505060904 | 54 | 0 | 0.0 | 0.0 | 0.00 | 0.00 | 0.00 | 88 | 1040.2 |
| 20260505060606 | 54 | 0 | 0.0 | 0.0 | 0.00 | 0.00 | 0.00 | 88 | 1040.2 |
| 20260505060003 | 54 | 0 | 0.0 | 0.0 | 0.00 | 0.00 | 0.00 | 85 | 1040.0 |
| 20260505055704 | 54 | 0 | 0.0 | 0.0 | 0.00 | 0.00 | 0.00 | 85 | 1040.1 |
| 20260505055104 | 54 | 0 | 0.0 | 0.0 | 0.00 | 0.00 | 0.00 | 84 | 1040.0 |
| 20260505054804 | 55 | 0 | 0.0 | 0.0 | 0.00 | 0.00 | 0.00 | 84 | 1040.0 |
| 20260505054504 | 55 | 0 | 0.0 | 0.0 | 0.00 | 0.00 | 0.00 | 84 | 1039.9 |
| 20260505053904 | 56 | 0 | 0.0 | 0.0 | 0.00 | 0.00 | 0.00 | 82 | 1039.9 |